This demonstration page uses our WeatherBlox Daily Observations layout. Learn more.

Left ArrowRight Arrow

Hourly Observations for February 8, 2015

Temp ( °F °C ) Dew Point ( °F °C ) Humidity (%) Winds ( mph kmh ) Pressure ( in mb ) Visibility ( mi km ) Precip ( " mm )
12:53 am 00:53 Clear 51 10.6 31 -0.6 46 46 SW 9 15 29.81 1009 10 16.0934 N/A
1:53 am 01:53 Clear 50 10 31 -0.6 48 48 SW 8 13 29.8 1009 10 16.0934 N/A
2:53 am 02:53 Clear 50 10 31 -0.6 48 48 SW 8 13 29.79 1009 10 16.0934 N/A
3:53 am 03:53 Clear 50 10 32 undefined 50 50 SW 9 15 29.79 1009 10 16.0934 N/A
4:53 am 04:53 Clear 50 10 33 0.6 52 52 SW 9 15 29.77 1008 10 16.0934 N/A
5:53 am 05:53 Clear 50 10 34 1.1 54 54 SSW 7 11 29.77 1008 10 16.0934 N/A
6:53 am 06:53 Clear 49 9.4 34 1.1 56 56 SSW 8 13 29.77 1008 10 16.0934 N/A
7:53 am 07:53 Sunny 49 9.4 33 0.6 55 55 SW 10 17 29.77 1008 10 16.0934 N/A
8:53 am 08:53 Sunny 51 10.6 35 1.7 54 54 VRB 7 11 29.78 1008 10 16.0934 N/A
9:53 am 09:53 Sunny 53 11.7 38 3.3 57 57 SSW 12 19 29.78 1008 10 16.0934 N/A
10:53 am 10:53 Sunny 56 13.3 40 4.4 55 55 SSW 12 19 29.77 1008 10 16.0934 N/A
11:53 am 11:53 Sunny 59 15 42 5.6 54 54 SW 14 22 29.75 1008 10 16.0934 N/A
12:53 pm 12:53 Cloudy 58 14.4 44 6.7 60 60 SW 14 22 29.74 1007 10 16.0934 N/A
1:43 pm 13:43 Cloudy 57 13.9 45 7.2 64 64 SSW 10 17 29.74 1007 10 16.0934 N/A
1:53 pm 13:53 Cloudy 57 13.9 45 7.2 64 64 SW 12 19 29.72 1007 10 16.0934 N/A
2:53 pm 14:53 Cloudy 56 13.3 45 7.2 67 67 SSW 10 17 29.72 1007 10 16.0934 N/A
3:53 pm 15:53 Cloudy 56 13.3 45 7.2 67 67 SW 7 11 29.71 1006 10 16.0934 N/A
4:53 pm 16:53 Cloudy 55 12.8 45 7.2 69 69 SSW 7 11 29.73 1007 10 16.0934 N/A
5:53 pm 17:53 Cloudy with Haze 53 11.7 46 7.8 77 77 SW 6 9 29.76 1008 6 9.65604 N/A
6:41 pm 18:41 Cloudy 52 11.1 48 8.9 86 86 SSW 6 9 29.77 1008 8 12.87472 N/A
6:53 pm 18:53 Cloudy 52 11.1 48 8.9 86 86 SSW 3 6 29.78 1008 8 12.87472 N/A
7:28 pm 19:28 Cloudy with Mist and Fog 51 10.6 48 8.9 89 89 SSW 3 6 29.77 1008 6 9.65604 N/A
7:53 pm 19:53 Cloudy 51 10.6 48 8.9 89 89 N N/A 29.78 1008 8 12.87472 N/A
8:14 pm 20:14 Cloudy 51 10.6 48 8.9 89 89 SW 3 6 29.77 1008 8 12.87472 N/A
8:53 pm 20:53 Cloudy 51 10.6 48 8.9 89 89 WSW 3 6 29.78 1008 9 14.48406 N/A
9:53 pm 21:53 Cloudy with Light Rain 52 11.1 48 8.9 86 86 WSW 3 6 29.78 1008 6 9.65604 N/A
10:36 pm 22:36 Cloudy with Light Rain 51 10.6 49 9.4 92 92 W 5 7 29.77 1008 2.5 4.02335 0.01 0.254
10:46 pm 22:46 Cloudy with Light Rain 51 10.6 49 9.4 92 92 WNW 5 7 29.77 1008 3 4.82802 0.01 0.254
10:53 pm 22:53 Cloudy with Light Rain 50 10 49 9.4 96 96 WNW 6 9 29.78 1009 3 4.82802 0.02 0.508
11:50 pm 23:50 Cloudy with Light Rain 50 10 48 9 94 94 NW 5 7 29.83 1010 2.5 4.02335 0.01 0.254
11:53 pm 23:53 Cloudy with Light Rain 50 10 49 9.4 96 96 NW 5 7 29.79 1009 3 4.82802 0.01 0.254

Powered by AerisWeather